Flag for U.S.A. Weather past 2 weeks in Prescott, Arizona, U.S.A.

Now
74 °F

Partly sunny.


Feels Like: 77 °F
Forecast: 61 / 78 °F
Wind: 14 mph from South

Location: Love Field

Current Time: Sep 15, 2014 at 7:03:53 PM

Latest Report: Sep 15, 2014 at 5:53 PM


Visibility: 10 mi

Pressure: 29.93 "Hg

Humidity: 46%

Dew point: 52 °F

Location of PrescottLocation

Historic Weather in Prescott — Graph

°F

Prescott temperature yesterday

Maximum temperature yesterday: 85 °F (at 1:53 PM)
Minimum temperature yesterday: 58 °F (at 4:53 AM)
Average temperature yesterday: 72 °F

Past Weeks' High & Low Weather Summary

 TemperatureHumidityPressure
High88 °F (Sep 3, 12:53 PM)93% (Sep 8, 4:53 AM)30.13 "Hg (Sep 8, 4:53 AM)
Low53 °F (Sep 10, 5:53 AM)15% (Sep 2, 4:53 PM)29.69 "Hg (Sep 4, 3:53 AM)
Average71 °F53%29.88 "Hg
* Reported Aug 31 5:53 PM — Sep 15 5:53 PM, Prescott, Weather by CustomWeather, © 2014

Note: Actual official high and low records may vary slightly from our data, if they occured in-between our weather recording intervals... More about our weather records

Advertising

Prescott weather history for previous 24 hours

 ConditionsComfort  
Time TempWeatherWind HumidityBarometerVisibility
5:53 PM
Sep 15
74 °FPartly sunny.14 mph46%29.93 "Hg10 mi
4:53 PM79 °FPartly sunny.No wind38%29.90 "Hg10 mi
3:53 PM81 °FPartly sunny.3 mph34%29.87 "Hg10 mi
2:53 PM87 °FSunny.No wind31%29.85 "Hg10 mi
1:53 PM87 °FScattered clouds.5 mph30%29.87 "Hg10 mi
12:53 PM85 °FScattered clouds.5 mph34%29.90 "Hg10 mi
11:53 AM83 °FPassing clouds.No wind38%29.92 "Hg10 mi
10:53 AM80 °FPassing clouds.3 mph41%29.94 "Hg10 mi
9:53 AM78 °FSunny.No wind45%29.94 "Hg10 mi
8:53 AM72 °FSunny.3 mph55%29.96 "Hg10 mi
7:53 AM69 °FSunny.3 mph61%29.95 "Hg10 mi
6:53 AM61 °FSunny.No wind72%29.95 "Hg10 mi
5:53 AM60 °FClear.No wind75%29.93 "Hg10 mi
4:53 AM61 °FClear.3 mph72%29.90 "Hg10 mi
3:53 AM61 °FClear.5 mph75%29.89 "Hg10 mi
2:53 AM63 °FClear.3 mph70%29.89 "Hg10 mi
1:53 AM63 °FClear.3 mph73%29.89 "Hg10 mi
12:53 AM61 °FClear.7 mph78%29.90 "Hg10 mi
11:53 PM
Sep 14
65 °FClear.3 mph70%29.88 "Hg10 mi
10:53 PM68 °FClear.8 mph61%29.87 "Hg10 mi
9:53 PM70 °FClear.7 mph57%29.87 "Hg10 mi
8:53 PM72 °FClear.7 mph53%29.86 "Hg10 mi
7:53 PM75 °FClear.5 mph48%29.85 "Hg10 mi
Weather by CustomWeather, © 2014

See weather overviewHow to use our weather pages